Hourly Weather Roundup
Issued by NWS Central Illinois

Home | Current Version | Previous Version | Graphics & Text | Print | Product List | Glossary On
Versions: 1 2 3 4 5 6 7 8 9 10 11 12 13 14 15 16 17 18 19 20 21 22 23 24 25 26 27 28 29 30 31 32 33 34 35 36 37 38 39 40 41 42 43 44 45 46 47 48 49 50
000
NZUS43 KILX 260010
HWRILX

AREA WEATHER ROUNDUP
NATIONAL WEATHER SERVICE, LINCOLN IL
600 PM CST THU DEC 25 2014


CITY           SKY/WX    TMP DP  RH WIND       PRES   REMARKS
BLOOMINGTON    PTCLDY    38  35  89 S13       30.00R WCI  30
6HR MIN TEMP:  38; 6HR MAX TEMP:  46;

CHAMPAIGN      CLEAR     39  34  82 S14       30.03R WCI  31
6HR MIN TEMP:  39; 6HR MAX TEMP:  45;

DECATUR        CLEAR     42  34  73 S13       30.02R
6HR MIN TEMP:  42; 6HR MAX TEMP:  47;

FLORA          CLEAR     39  34  81 S8        30.07F WCI  33
6HR MIN TEMP:  39; 6HR MAX TEMP:  47;

GALESBURG      PTCLDY    42  33  72 SE8       29.90R
JACKSONVILLE   PTCLDY    44  36  73 SE12      29.94S
6HR MIN TEMP:  44; 6HR MAX TEMP:  51;

LACON          PTCLDY    41  34  75 SE10      29.95F WCI  35
6HR MIN TEMP:  41; 6HR MAX TEMP:  48;

LAWRENCEVILLE  CLEAR     38  34  85 SE8       30.11S WCI  32
6HR MIN TEMP:  38; 6HR MAX TEMP:  48;

LITCHFIELD     CLEAR     42  34  73 S16       30.00R WCI  34
$$


CITY           SKY/WX    TMP DP  RH WIND       PRES   REMARKS
LINCOLN        CLEAR     42  36  79 S9        29.99S
6HR MIN TEMP:  42; 6HR MAX TEMP:  49;

MACOMB         PTCLDY    39  33  78 SE10      29.92S WCI  33
MATTOON        CLEAR     40  34  79 S10       30.04S WCI  33
6HR MIN TEMP:  40; 6HR MAX TEMP:  45;

MT CARMEL AP   CLEAR     41  34  75 SE9       30.10F
OLNEY-NOBLE AP CLEAR     41  34  75 SE9       30.08F
PARIS          CLEAR     37  35  90 SE9       30.08S WCI  31
6HR MIN TEMP:  37; 6HR MAX TEMP:  45;

PEORIA         PTCLDY    44  34  67 S13       29.95S
6HR MIN TEMP:  44; 6HR MAX TEMP:  49;

PONTIAC        CLEAR     41  37  87 S15       30.01R WCI  33
RANTOUL        CLEAR     38  36  90 S8        30.03S WCI  32
6HR MIN TEMP:  38; 6HR MAX TEMP:  46;

ROBINSON       CLEAR     38  33  84 S9        30.11S WCI  31
6HR MIN TEMP:  38; 6HR MAX TEMP:  47;

SPRINGFIELD    PTCLDY    44  35  70 S15       29.97F
6HR MIN TEMP:  43; 6HR MAX TEMP:  49;

TAYLORVILLE    CLEAR     41  34  75 S13       30.01S WCI  34
$$

...REGIONAL REPORTS...


CITY           SKY/WX    TMP DP  RH WIND       PRES   REMARKS
CHICAGO O`HARE MOCLDY    40  34  79 S13       29.98R WCI  32
KANKAKEE       CLEAR     39  35  84 S12G18    30.04R WCI  32
MOLINE         PTCLDY    41  31  67 SE12      29.88S WCI  34
MOUNT VERNON   PTCLDY    43  32  65 S12       30.08R
PITTSFIELD     CLEAR     45  32  61 SE13      29.91F
QUINCY         CLEAR     40  30  67 SE9       29.87F WCI  34
ROCKFORD       MOCLDY    41  33  73 S13       29.94S WCI  34
$$


CITY           SKY/WX    TMP DP  RH WIND       PRES   REMARKS
BURLINGTON     PTCLDY    44  32  62 SE13      29.86S
CEDAR RAPIDS   PTCLDY    42  32  67 SE14      29.81R WCI  35
DES MOINES     MOCLDY    45  30  55 SE10      29.74R
KIRKSVILLE     PTCLDY    43  32  65 S14       29.80R
OTTUMWA        MOCLDY    44  31  60 SE14      29.79R
ST LOUIS       MOCLDY    49  32  52 S10       29.98S
$$


CITY           SKY/WX    TMP DP  RH WIND       PRES   REMARKS
TERRE HAUTE    CLEAR     39  32  76 S8        30.10S WCI  33
EVANSVILLE     CLEAR     44  33  65 S5        30.14S
INDIANAPOLIS   PTCLDY    35  30  82 S9        30.12S WCI  28
LAFAYETTE      CLEAR     35  31  85 SE6       30.09S WCI  30
MADISON        PTCLDY    39  32  76 S9        29.88R WCI  33
MILWAUKEE      MOCLDY    39  30  70 S9        29.94R WCI  33
$$




USA.gov is the U.S. government's official web portal to all federal, state and local government web resources and services.